BAW815C EKCH-EGLL

Flight info

Callsign BAW815C
Flight time 1h 26m
Altitude 38000
Route LANGO DCT ABNED L980 LOGAN
Aircraft A320/M-SDE3FGHIRWY/LB1

Departure

Time 2026-04-21 19:58
Airport Copenhagen Kastrup Airport (EKCH)

Arrival

Time 2026-04-21 21:25
Airport London Heathrow Airport (EGLL)
Time Latitude Longitude Altitude Speed Heading
2026-04-21 19:27 55.62736 12.65179 24 ft 0 kts 354°
2026-04-21 19:28 55.62737 12.65179 24 ft 0 kts 356°
2026-04-21 19:44 55.62735 12.65180 24 ft 1 kts 356°
2026-04-21 19:45 55.62717 12.65181 28 ft 3 kts 356°
2026-04-21 19:45 55.62697 12.65183 27 ft 3 kts 352°
2026-04-21 19:45 55.62679 12.65191 24 ft 3 kts 331°
2026-04-21 19:45 55.62663 12.65212 27 ft 3 kts 303°
2026-04-21 19:46 55.62655 12.65243 26 ft 3 kts 276°
2026-04-21 19:46 55.62654 12.65277 24 ft 3 kts 287°
2026-04-21 19:46 55.62646 12.65305 26 ft 3 kts 324°
2026-04-21 19:46 55.62628 12.65318 26 ft 3 kts 355°
2026-04-21 19:47 55.62617 12.65320 26 ft 2 kts 359°
2026-04-21 19:47 55.62604 12.65320 25 ft 0 kts 359°
2026-04-21 19:47 55.62603 12.65320 25 ft 0 kts 359°
2026-04-21 19:50 55.62611 12.65320 26 ft 2 kts 359°
2026-04-21 19:50 55.62635 12.65307 26 ft 5 kts 334°
2026-04-21 19:50 55.62651 12.65243 25 ft 7 kts 263°
2026-04-21 19:51 55.62607 12.65183 24 ft 10 kts 188°
2026-04-21 19:51 55.62532 12.65183 24 ft 8 kts 179°
2026-04-21 19:51 55.62492 12.65185 25 ft 0 kts 178°
2026-04-21 19:51 55.62487 12.65185 24 ft 0 kts 178°
2026-04-21 19:54 55.62482 12.65186 24 ft 2 kts 177°
2026-04-21 19:54 55.62460 12.65192 24 ft 5 kts 170°
2026-04-21 19:54 55.62418 12.65199 24 ft 8 kts 177°
2026-04-21 19:54 55.62354 12.65203 24 ft 11 kts 178°
2026-04-21 19:55 55.62271 12.65196 24 ft 12 kts 181°
2026-04-21 19:55 55.62183 12.65144 24 ft 15 kts 216°
2026-04-21 19:55 55.62087 12.65034 25 ft 18 kts 212°
2026-04-21 19:55 55.61995 12.64930 24 ft 15 kts 213°
2026-04-21 19:56 55.61905 12.64826 24 ft 14 kts 212°
2026-04-21 19:56 55.61814 12.64723 25 ft 17 kts 213°
2026-04-21 19:56 55.61716 12.64610 24 ft 16 kts 213°
2026-04-21 19:56 55.61656 12.64442 24 ft 18 kts 264°
2026-04-21 19:57 55.61648 12.64232 25 ft 16 kts 266°
2026-04-21 19:57 55.61630 12.64084 27 ft 11 kts 236°
2026-04-21 19:57 55.61558 12.63966 30 ft 20 kts 221°
2026-04-21 19:57 55.61317 12.63589 26 ft 80 kts 221°
2026-04-21 19:58 55.60747 12.62709 26 ft 134 kts 221°
2026-04-21 19:58 55.59956 12.61484 315 ft 152 kts 223°
2026-04-21 19:58 55.59181 12.60297 991 ft 150 kts 224°
2026-04-21 19:58 55.58360 12.59023 1376 ft 166 kts 224°
2026-04-21 19:59 55.57433 12.57581 1670 ft 188 kts 224°
2026-04-21 19:59 55.56464 12.55840 1937 ft 210 kts 237°
2026-04-21 19:59 55.55596 12.53581 2344 ft 233 kts 240°
2026-04-21 19:59 55.54727 12.51039 2859 ft 254 kts 242°
2026-04-21 20:00 55.53821 12.48299 3680 ft 262 kts 242°
2026-04-21 20:00 55.52884 12.45476 4527 ft 270 kts 241°
2026-04-21 20:00 55.51905 12.42572 5394 ft 277 kts 240°
2026-04-21 20:00 55.50905 12.39656 6260 ft 282 kts 239°
2026-04-21 20:01 55.50223 12.37690 6863 ft 284 kts 239°
2026-04-21 20:01 55.49177 12.34700 7716 ft 288 kts 238°
2026-04-21 20:01 55.47756 12.30669 8798 ft 295 kts 238°
2026-04-21 20:01 55.46662 12.27581 9622 ft 299 kts 238°
2026-04-21 20:02 55.45927 12.25511 10162 ft 302 kts 238°
2026-04-21 20:02 55.44786 12.22295 10663 ft 318 kts 238°
2026-04-21 20:02 55.43564 12.18847 10882 ft 341 kts 238°
2026-04-21 20:02 55.42291 12.15256 11284 ft 355 kts 238°
2026-04-21 20:03 55.40966 12.11525 11952 ft 360 kts 238°
2026-04-21 20:03 55.39626 12.07756 12637 ft 364 kts 238°
2026-04-21 20:03 55.38287 12.03992 13326 ft 368 kts 238°
2026-04-21 20:03 55.36921 12.00145 14008 ft 372 kts 237°
2026-04-21 20:04 55.35537 11.96258 14622 ft 376 kts 237°
2026-04-21 20:04 55.34126 11.92311 15215 ft 380 kts 237°
2026-04-21 20:04 55.32724 11.88401 15788 ft 384 kts 237°
2026-04-21 20:04 55.31288 11.84396 16358 ft 388 kts 237°
2026-04-21 20:05 55.29839 11.80361 16928 ft 392 kts 237°
2026-04-21 20:05 55.28373 11.76295 17506 ft 396 kts 237°
2026-04-21 20:05 55.26887 11.72186 18070 ft 400 kts 237°
2026-04-21 20:05 55.25403 11.68092 18645 ft 404 kts 237°
2026-04-21 20:06 55.23881 11.63915 19151 ft 408 kts 237°
2026-04-21 20:06 55.22332 11.59699 19662 ft 412 kts 236°
2026-04-21 20:06 55.20783 11.55501 20155 ft 416 kts 236°
2026-04-21 20:06 55.19200 11.51226 20647 ft 420 kts 236°
2026-04-21 20:07 55.17598 11.46912 21145 ft 423 kts 236°
2026-04-21 20:07 55.15979 11.42563 21616 ft 427 kts 236°
2026-04-21 20:07 55.14347 11.38191 22080 ft 431 kts 236°
2026-04-21 20:07 55.12716 11.33829 22531 ft 435 kts 236°
2026-04-21 20:08 55.11053 11.29388 22975 ft 438 kts 236°
2026-04-21 20:08 55.09371 11.24894 23421 ft 442 kts 236°
2026-04-21 20:08 55.07686 11.20383 23868 ft 445 kts 236°
2026-04-21 20:08 55.05999 11.15870 24248 ft 449 kts 236°
2026-04-21 20:09 55.04279 11.11291 24636 ft 452 kts 236°
2026-04-21 20:09 55.02543 11.06691 25026 ft 454 kts 236°
2026-04-21 20:09 55.00815 11.02127 25404 ft 457 kts 235°
2026-04-21 20:09 54.99049 10.97466 25761 ft 461 kts 235°
2026-04-21 20:10 54.97280 10.92803 26137 ft 462 kts 235°
2026-04-21 20:10 54.95497 10.88110 26549 ft 464 kts 235°
2026-04-21 20:10 54.93722 10.83384 26932 ft 466 kts 236°
2026-04-21 20:10 54.92021 10.78625 27299 ft 469 kts 237°
2026-04-21 20:11 54.90338 10.73724 27670 ft 471 kts 238°
2026-04-21 20:11 54.88676 10.68790 28044 ft 474 kts 239°
2026-04-21 20:11 54.86990 10.63834 28422 ft 476 kts 236°
2026-04-21 20:11 54.84903 10.59494 28760 ft 474 kts 219°
2026-04-21 20:12 54.82195 10.56300 29107 ft 469 kts 201°
2026-04-21 20:12 54.79166 10.54242 29451 ft 467 kts 195°
2026-04-21 20:12 54.76081 10.52363 29803 ft 470 kts 194°
2026-04-21 20:12 54.73014 10.50510 30142 ft 472 kts 194°
2026-04-21 20:13 54.69895 10.48633 30533 ft 473 kts 194°
2026-04-21 20:13 54.66807 10.46623 30953 ft 476 kts 202°
2026-04-21 20:13 54.64010 10.43499 31373 ft 482 kts 219°
2026-04-21 20:13 54.61773 10.39195 31808 ft 484 kts 236°
2026-04-21 20:14 54.60082 10.34267 32257 ft 482 kts 240°
2026-04-21 20:14 54.58424 10.29241 32765 ft 480 kts 240°
2026-04-21 20:14 54.56782 10.24256 33291 ft 477 kts 240°
2026-04-21 20:14 54.55140 10.19290 33800 ft 475 kts 240°
2026-04-21 20:15 54.53499 10.14353 34322 ft 472 kts 240°
2026-04-21 20:15 54.51863 10.09457 34763 ft 470 kts 240°
2026-04-21 20:15 54.50232 10.04593 35147 ft 469 kts 240°
2026-04-21 20:15 54.48600 9.99742 35510 ft 468 kts 240°
2026-04-21 20:16 54.46966 9.94894 35838 ft 467 kts 240°
2026-04-21 20:16 54.45337 9.90064 36166 ft 467 kts 240°
2026-04-21 20:16 54.43711 9.85242 36486 ft 466 kts 240°
2026-04-21 20:16 54.42083 9.80420 36791 ft 466 kts 240°
2026-04-21 20:17 54.40476 9.75675 37095 ft 465 kts 240°
2026-04-21 20:17 54.38845 9.70876 37400 ft 465 kts 240°
2026-04-21 20:17 54.37214 9.66089 37701 ft 465 kts 240°
2026-04-21 20:17 54.35579 9.61299 37985 ft 464 kts 240°
2026-04-21 20:18 54.34502 9.58142 38185 ft 464 kts 240°
2026-04-21 20:18 54.32321 9.51753 38379 ft 466 kts 240°
2026-04-21 20:18 54.30676 9.46943 38383 ft 469 kts 240°
2026-04-21 20:19 54.27380 9.37340 38380 ft 470 kts 240°
2026-04-21 20:19 54.24051 9.27699 38380 ft 470 kts 240°
2026-04-21 20:20 54.20726 9.18113 38380 ft 470 kts 240°
2026-04-21 20:20 54.17377 9.08497 38381 ft 470 kts 240°
2026-04-21 20:21 54.14031 8.98917 38376 ft 470 kts 240°
2026-04-21 20:21 54.10689 8.89392 38389 ft 469 kts 239°
2026-04-21 20:22 54.07347 8.79894 38394 ft 469 kts 239°
2026-04-21 20:22 54.02296 8.65581 38397 ft 469 kts 239°
2026-04-21 20:23 53.98932 8.56129 38397 ft 469 kts 239°
2026-04-21 20:23 53.95555 8.46678 38396 ft 469 kts 239°
2026-04-21 20:24 53.92166 8.37209 38399 ft 468 kts 239°
2026-04-21 20:24 53.88786 8.27801 38405 ft 468 kts 239°
2026-04-21 20:25 53.85379 8.18353 38395 ft 468 kts 239°
2026-04-21 20:25 53.81993 8.08992 38395 ft 468 kts 239°
2026-04-21 20:26 53.78572 7.99588 38397 ft 468 kts 239°
2026-04-21 20:26 53.75155 7.90264 38401 ft 468 kts 239°
2026-04-21 20:27 53.71742 7.80960 38386 ft 468 kts 239°
2026-04-21 20:27 53.68309 7.71603 38385 ft 468 kts 239°
2026-04-21 20:28 53.64869 7.62263 38390 ft 468 kts 239°
2026-04-21 20:28 53.61428 7.52966 38389 ft 468 kts 238°
2026-04-21 20:29 53.57984 7.43686 38386 ft 469 kts 238°
2026-04-21 20:29 53.54505 7.34363 38389 ft 469 kts 238°
2026-04-21 20:30 53.51041 7.25129 38388 ft 469 kts 238°
2026-04-21 20:30 53.47541 7.15853 38398 ft 468 kts 238°
2026-04-21 20:31 53.44071 7.06650 38397 ft 468 kts 238°
2026-04-21 20:31 53.40592 6.97431 38399 ft 467 kts 238°
2026-04-21 20:32 53.37118 6.88279 38397 ft 467 kts 238°
2026-04-21 20:32 53.33609 6.79090 38398 ft 467 kts 238°
2026-04-21 20:33 53.30098 6.69927 38393 ft 467 kts 238°
2026-04-21 20:33 53.26596 6.60823 38387 ft 467 kts 238°
2026-04-21 20:34 53.23088 6.51745 38389 ft 467 kts 238°
2026-04-21 20:34 53.19558 6.42631 38390 ft 466 kts 238°
2026-04-21 20:35 53.16052 6.33586 38386 ft 466 kts 238°
2026-04-21 20:35 53.12511 6.24490 38389 ft 466 kts 237°
2026-04-21 20:36 53.08980 6.15472 38392 ft 466 kts 237°
2026-04-21 20:36 53.05430 6.06447 38377 ft 466 kts 237°
2026-04-21 20:37 53.01897 5.97480 38387 ft 465 kts 237°
2026-04-21 20:37 52.98337 5.88475 38384 ft 464 kts 237°
2026-04-21 20:38 52.94806 5.79568 38382 ft 464 kts 237°
2026-04-21 20:38 52.91250 5.70643 38373 ft 464 kts 237°
2026-04-21 20:39 52.87694 5.61741 38373 ft 464 kts 237°
2026-04-21 20:39 52.84107 5.52792 38363 ft 464 kts 238°
2026-04-21 20:40 52.80545 5.43959 38363 ft 464 kts 237°
2026-04-21 20:40 52.76947 5.35062 38365 ft 464 kts 237°
2026-04-21 20:41 52.73381 5.26259 38360 ft 464 kts 237°
2026-04-21 20:41 52.69781 5.17390 38364 ft 464 kts 237°
2026-04-21 20:42 52.66171 5.08541 38368 ft 464 kts 237°
2026-04-21 20:42 52.62571 4.99761 38366 ft 464 kts 237°
2026-04-21 20:43 52.58969 4.91000 38363 ft 463 kts 237°
2026-04-21 20:43 52.55351 4.82226 38362 ft 463 kts 237°
2026-04-21 20:44 52.51745 4.73521 38364 ft 462 kts 237°
2026-04-21 20:44 52.48112 4.64771 38357 ft 462 kts 237°
2026-04-21 20:45 52.44505 4.56112 38353 ft 462 kts 237°
2026-04-21 20:45 52.40858 4.47386 38355 ft 461 kts 237°
2026-04-21 20:46 52.37246 4.38765 38354 ft 461 kts 237°
2026-04-21 20:46 52.33602 4.30093 38358 ft 461 kts 237°
2026-04-21 20:47 52.29973 4.21501 38352 ft 461 kts 237°
2026-04-21 20:47 52.26330 4.12914 38359 ft 461 kts 237°
2026-04-21 20:48 52.22672 4.04316 38359 ft 461 kts 237°
2026-04-21 20:48 52.19016 3.95761 38360 ft 460 kts 237°
2026-04-21 20:49 52.15361 3.87221 38356 ft 459 kts 238°
2026-04-21 20:49 52.12317 3.80121 38355 ft 459 kts 237°
2026-04-21 20:50 52.08050 3.70226 38343 ft 458 kts 237°
2026-04-21 20:50 52.04992 3.63152 38340 ft 458 kts 237°
2026-04-21 20:51 52.01316 3.54679 38340 ft 458 kts 237°
2026-04-21 20:51 51.97636 3.46216 38329 ft 458 kts 237°
2026-04-21 20:52 51.93975 3.37822 38315 ft 458 kts 238°
2026-04-21 20:52 51.90353 3.29563 38314 ft 440 kts 237°
2026-04-21 20:53 51.86920 3.21539 38317 ft 428 kts 243°
2026-04-21 20:53 51.84760 3.12575 38309 ft 434 kts 262°
2026-04-21 20:54 51.84017 3.02791 38315 ft 441 kts 267°
2026-04-21 20:54 51.83369 2.92929 38315 ft 443 kts 266°
2026-04-21 20:55 51.82697 2.83020 38326 ft 441 kts 266°
2026-04-21 20:55 51.82031 2.73332 38325 ft 426 kts 266°
2026-04-21 20:56 51.81390 2.63951 38327 ft 418 kts 267°
2026-04-21 20:56 51.80755 2.54471 38327 ft 432 kts 267°
2026-04-21 20:57 51.80082 2.44744 38328 ft 439 kts 266°
2026-04-21 20:57 51.79378 2.34937 38328 ft 437 kts 266°
2026-04-21 20:58 51.78676 2.25231 37879 ft 437 kts 266°
2026-04-21 20:58 51.78323 2.20283 36921 ft 445 kts 267°
2026-04-21 20:58 51.78004 2.15343 36197 ft 446 kts 268°
2026-04-21 20:59 51.77712 2.10332 35428 ft 449 kts 268°
2026-04-21 20:59 51.77435 2.05325 34895 ft 446 kts 269°
2026-04-21 20:59 51.77155 2.00312 34176 ft 447 kts 269°
2026-04-21 20:59 51.76873 1.95360 33356 ft 447 kts 269°
2026-04-21 21:00 51.76579 1.90346 32535 ft 447 kts 269°
2026-04-21 21:00 51.76274 1.85363 31836 ft 444 kts 269°
2026-04-21 21:00 51.75965 1.80383 31052 ft 443 kts 270°
2026-04-21 21:00 51.75660 1.75491 30195 ft 442 kts 270°
2026-04-21 21:01 51.75352 1.70545 29097 ft 444 kts 269°
2026-04-21 21:01 51.75041 1.65551 27826 ft 450 kts 269°
2026-04-21 21:01 51.74728 1.60490 26452 ft 458 kts 268°
2026-04-21 21:01 51.74406 1.55334 25301 ft 462 kts 267°
2026-04-21 21:02 51.74077 1.50153 24281 ft 463 kts 266°
2026-04-21 21:02 51.73744 1.44976 23141 ft 463 kts 266°
2026-04-21 21:02 51.73411 1.39842 22383 ft 455 kts 266°
2026-04-21 21:02 51.73084 1.34889 21737 ft 446 kts 266°
2026-04-21 21:03 51.72755 1.29955 21071 ft 438 kts 266°
2026-04-21 21:03 51.72432 1.25087 20419 ft 432 kts 266°
2026-04-21 21:03 51.72111 1.20260 19770 ft 432 kts 266°
2026-04-21 21:03 51.71791 1.15503 19133 ft 430 kts 265°
2026-04-21 21:04 51.71467 1.10731 18462 ft 426 kts 265°
2026-04-21 21:04 51.71142 1.05973 17793 ft 425 kts 265°
2026-04-21 21:04 51.70817 1.01233 17153 ft 425 kts 265°
2026-04-21 21:04 51.70493 0.96504 16516 ft 422 kts 264°
2026-04-21 21:05 51.70172 0.91810 15698 ft 421 kts 264°
2026-04-21 21:05 51.69845 0.87075 14580 ft 428 kts 264°
2026-04-21 21:05 51.69518 0.82363 13840 ft 425 kts 263°
2026-04-21 21:05 51.69186 0.77652 13161 ft 419 kts 263°
2026-04-21 21:06 51.68858 0.73067 12877 ft 403 kts 263°
2026-04-21 21:06 51.68538 0.68621 12321 ft 395 kts 263°
2026-04-21 21:06 51.68222 0.64237 11725 ft 390 kts 263°
2026-04-21 21:06 51.67912 0.59945 11571 ft 392 kts 263°
2026-04-21 21:07 51.67597 0.55572 11398 ft 392 kts 263°
2026-04-21 21:07 51.67283 0.51203 11225 ft 392 kts 263°
2026-04-21 21:07 51.66969 0.46838 10978 ft 391 kts 263°
2026-04-21 21:07 51.66652 0.42479 10242 ft 391 kts 263°
2026-04-21 21:08 51.66332 0.38163 9690 ft 383 kts 262°
2026-04-21 21:08 51.66027 0.34029 9542 ft 357 kts 262°
2026-04-21 21:08 51.65744 0.30206 9408 ft 331 kts 262°
2026-04-21 21:08 51.65536 0.26637 9256 ft 312 kts 266°
2026-04-21 21:09 51.65411 0.23190 9062 ft 305 kts 266°
2026-04-21 21:09 51.65294 0.19799 8759 ft 302 kts 266°
2026-04-21 21:09 51.65178 0.16461 8437 ft 301 kts 266°
2026-04-21 21:09 51.65058 0.13092 8100 ft 300 kts 266°
2026-04-21 21:10 51.64938 0.09742 7773 ft 298 kts 266°
2026-04-21 21:10 51.64818 0.06409 7461 ft 297 kts 266°
2026-04-21 21:10 51.64697 0.03132 7154 ft 296 kts 266°
2026-04-21 21:10 51.64573 -0.00175 6903 ft 295 kts 266°
2026-04-21 21:11 51.64451 -0.03468 6582 ft 294 kts 266°
2026-04-21 21:11 51.64333 -0.06743 6326 ft 291 kts 266°
2026-04-21 21:11 51.64217 -0.09951 6201 ft 282 kts 266°
2026-04-21 21:11 51.64107 -0.13068 6094 ft 274 kts 266°
2026-04-21 21:12 51.64001 -0.16060 6112 ft 263 kts 266°
2026-04-21 21:12 51.63897 -0.18994 6118 ft 262 kts 266°
2026-04-21 21:12 51.63791 -0.21920 6119 ft 261 kts 266°
2026-04-21 21:12 51.63686 -0.24838 6119 ft 261 kts 266°
2026-04-21 21:13 51.63578 -0.27756 6119 ft 262 kts 266°
2026-04-21 21:13 51.63470 -0.30680 6119 ft 262 kts 266°
2026-04-21 21:13 51.63363 -0.33603 6119 ft 261 kts 266°
2026-04-21 21:13 51.63256 -0.36524 6008 ft 262 kts 266°
2026-04-21 21:14 51.63147 -0.39403 6010 ft 262 kts 266°
2026-04-21 21:14 51.63038 -0.42341 6011 ft 262 kts 266°
2026-04-21 21:14 51.62931 -0.45259 6011 ft 261 kts 266°
2026-04-21 21:14 51.62823 -0.48178 6010 ft 261 kts 266°
2026-04-21 21:15 51.62711 -0.51099 5817 ft 261 kts 266°
2026-04-21 21:15 51.62601 -0.54008 5688 ft 260 kts 266°
2026-04-21 21:15 51.62494 -0.56909 5557 ft 259 kts 266°
2026-04-21 21:15 51.62387 -0.59803 5427 ft 259 kts 266°
2026-04-21 21:16 51.62281 -0.62700 5300 ft 259 kts 266°
2026-04-21 21:16 51.62173 -0.65590 5175 ft 258 kts 266°
2026-04-21 21:16 51.62067 -0.68434 5056 ft 258 kts 266°
2026-04-21 21:16 51.61958 -0.71313 5002 ft 257 kts 266°
2026-04-21 21:17 51.61850 -0.74199 5007 ft 258 kts 266°
2026-04-21 21:17 51.61739 -0.77086 5004 ft 258 kts 266°
2026-04-21 21:17 51.61608 -0.79963 5000 ft 257 kts 260°
2026-04-21 21:17 51.60942 -0.82580 4971 ft 253 kts 228°
2026-04-21 21:18 51.59608 -0.84263 4835 ft 240 kts 195°
2026-04-21 21:18 51.58009 -0.84578 4709 ft 228 kts 167°
2026-04-21 21:18 51.56459 -0.84135 4584 ft 225 kts 162°
2026-04-21 21:18 51.54941 -0.83578 4460 ft 223 kts 161°
2026-04-21 21:19 51.53441 -0.83010 4332 ft 218 kts 161°
2026-04-21 21:19 51.51989 -0.82468 4198 ft 212 kts 161°
2026-04-21 21:19 51.50570 -0.81929 4077 ft 211 kts 157°
2026-04-21 21:19 51.49281 -0.80917 3990 ft 205 kts 138°
2026-04-21 21:20 51.48307 -0.79311 3862 ft 199 kts 120°
2026-04-21 21:20 51.47735 -0.77316 3670 ft 196 kts 102°
2026-04-21 21:20 51.47606 -0.75161 3436 ft 194 kts 89°
2026-04-21 21:20 51.47621 -0.73015 3179 ft 191 kts 89°
2026-04-21 21:21 51.47635 -0.70898 2913 ft 188 kts 89°
2026-04-21 21:21 51.47648 -0.68843 2667 ft 177 kts 89°
2026-04-21 21:21 51.47658 -0.66965 2446 ft 160 kts 89°
2026-04-21 21:21 51.47667 -0.65272 2225 ft 144 kts 88°
2026-04-21 21:22 51.47675 -0.63739 2047 ft 135 kts 87°
2026-04-21 21:22 51.47684 -0.62242 1854 ft 134 kts 88°
2026-04-21 21:22 51.47692 -0.60739 1663 ft 135 kts 88°
2026-04-21 21:22 51.47699 -0.59231 1475 ft 136 kts 87°
2026-04-21 21:23 51.47707 -0.57699 1285 ft 137 kts 87°
2026-04-21 21:23 51.47714 -0.56225 1100 ft 130 kts 87°
2026-04-21 21:23 51.47720 -0.54783 909 ft 128 kts 87°
2026-04-21 21:23 51.47727 -0.53372 729 ft 128 kts 88°
2026-04-21 21:24 51.47730 -0.51936 535 ft 127 kts 86°
2026-04-21 21:24 51.47734 -0.50520 336 ft 127 kts 86°
2026-04-21 21:24 51.47745 -0.49109 176 ft 125 kts 86°
2026-04-21 21:24 51.47751 -0.47726 90 ft 116 kts 86°
2026-04-21 21:25 51.47757 -0.46665 92 ft 71 kts 90°
2026-04-21 21:25 51.47758 -0.46129 89 ft 35 kts 90°
2026-04-21 21:25 51.47760 -0.45743 84 ft 34 kts 90°
2026-04-21 21:25 51.47734 -0.45496 90 ft 17 kts 141°
2026-04-21 21:26 51.47627 -0.45470 86 ft 13 kts 189°
2026-04-21 21:26 51.47596 -0.45599 90 ft 15 kts 272°
2026-04-21 21:26 51.47596 -0.45777 89 ft 17 kts 269°
2026-04-21 21:26 51.47595 -0.45982 90 ft 20 kts 270°
2026-04-21 21:27 51.47595 -0.46212 90 ft 19 kts 270°
2026-04-21 21:27 51.47593 -0.46435 86 ft 21 kts 270°
2026-04-21 21:27 51.47592 -0.46690 86 ft 21 kts 269°
2026-04-21 21:27 51.47587 -0.46849 86 ft 13 kts 261°
2026-04-21 21:28 51.47583 -0.47009 86 ft 16 kts 269°
2026-04-21 21:28 51.47582 -0.47201 87 ft 19 kts 269°
2026-04-21 21:28 51.47581 -0.47603 91 ft 19 kts 267°
2026-04-21 21:29 51.47580 -0.47836 90 ft 21 kts 268°
2026-04-21 21:29 51.47580 -0.48061 90 ft 16 kts 269°
2026-04-21 21:29 51.47579 -0.48247 88 ft 17 kts 270°
2026-04-21 21:29 51.47558 -0.48380 87 ft 11 kts 279°
2026-04-21 21:30 51.47532 -0.48476 87 ft 12 kts 188°
2026-04-21 21:30 51.47436 -0.48476 86 ft 15 kts 180°
2026-04-21 21:30 51.47325 -0.48475 86 ft 15 kts 179°
2026-04-21 21:30 51.47245 -0.48474 86 ft 13 kts 180°
2026-04-21 21:31 51.47189 -0.48489 88 ft 7 kts 230°
2026-04-21 21:31 51.47188 -0.48572 86 ft 5 kts 269°
2026-04-21 21:31 51.47188 -0.48591 86 ft 0 kts 269°